Location: Bronnegerveen
(52.9548°N, 6.8388°E)
Time: 01:05:56
(UTC+00:00)

Cosmos 2228 - Pass Details

Date: 15 June 2025
Orbit: 566 x 594 km, 82.5° (Epoch: 07 July)

Event Time Altitude Azimuth Distance (km) Brightness Sun altitude
Rises 01:34:57 0° 352° (N) 2,783 7.4 -9.3°
Reaches altitude 10° 01:37:13 10° 359° (N) 1,879 6.6 -9.1°
Maximum altitude 01:41:13 46° 74° (ENE) 767 3.9 -8.8°
Drops below altitude 10° 01:45:11 10° 148° (SSE) 1,864 5.3 -8.5°
Sets 01:47:25 0° 155° (SSE) 2,758 6.1 -8.3°
